Home   Weather   Campbelltown   Past weeks

Flag for Australia Past Weather in Campbelltown, New South Wales, Australia — Yesterday and Last 2 Weeks

Now
59 °F

Refreshingly cool.


Feels Like: 57 °F
Forecast: 46 / 68 °F
Wind: 14 mph from West

Location: Camden Airport

Current Time: Sep 27, 2016 at 8:34:29 PM

Latest Report: Sep 27, 2016 at 6:00 PM


Visibility: N/A

Pressure: 29.85 "Hg

Humidity: 36%

Dew Point: 32 °F

Location of CampbelltownLocation

Past Weather in Campbelltown — Graph

°F

Campbelltown Temperature Yesterday

Maximum temperature yesterday: 69 °F (at 2:00 PM)
Minimum temperature yesterday: 46 °F (at 5:00 AM)
Average temperature yesterday: 57 °F

High & Low Weather Summary for the Past Weeks

 TemperatureHumidityPressure
High74 °F (Sep 24, 3:00 PM)100% (Sep 22, 5:00 AM)30.20 "Hg (Sep 22, 5:00 AM)
Low38 °F (Sep 20, 5:00 AM)24% (Sep 27, 2:00 PM)29.59 "Hg (Sep 18, 11:00 PM)
Average58 °F69%29.89 "Hg
* Reported Sep 12 6:00 PM — Sep 27 6:00 PM, Campbelltown, Weather by CustomWeather, © 2016

Note: Actual official high and low records may vary slightly from our data, if they occured in-between our weather recording intervals... More about our weather records

Advertising

Campbelltown Weather History for the Previous 24 Hours

Scroll right to see more
 ConditionsComfort  
Time TempWeatherWind HumidityBarometerVisibility
6:00 PM
Tue, Sep 27
59 °FRefreshingly cool.14 mph36%29.85 "HgN/A
5:00 PM62 °FRefreshingly cool.20 mph33%29.83 "HgN/A
3:00 PM67 °FMild.24 mph25%29.76 "HgN/A
2:00 PM68 °FMild.24 mph24%29.74 "HgN/A
12:00 PM70 °FMild.24 mph27%29.72 "HgN/A
11:00 AM68 °FMild.13 mph37%29.75 "HgN/A
9:00 AM58 °FCool.1 mph66%29.80 "HgN/A
8:00 AM49 °FCool.5 mph74%29.83 "HgN/A
6:00 AM38 °FChilly.No wind98%29.87 "HgN/A
5:00 AM39 °FChilly.No wind96%29.86 "HgN/A
3:00 AM41 °FQuite cool.No wind96%29.88 "HgN/A
2:00 AM42 °FQuite cool.No wind91%29.90 "HgN/A
12:00 AM45 °FCool.No wind82%29.91 "HgN/A
11:00 PM
Mon, Sep 26
47 °FCool.1 mph74%29.91 "HgN/A
9:00 PM54 °FCool.6 mph57%29.91 "HgN/A
8:00 PM56 °FRefreshingly cool.8 mph49%29.90 "HgN/A
Weather by CustomWeather, © 2016

See weather overviewHow to use our weather pages